| time (UTC) | temp F | wind direction | speed knots | gust knots | rain 1hr in | rain 24hr in | rain mn in | humidity % | barometer mb |
| 20260505033508 | 55 | 65 | 13.9 | 18.2 | 0.00 | 0.00 | 0.00 | 54 | 1008.8 |
| 20260505033008 | 55 | 63 | 13.9 | 20.0 | 0.00 | 0.00 | 0.00 | 53 | 1008.8 |
| 20260505032508 | 55 | 63 | 14.8 | 20.0 | 0.00 | 0.00 | 0.00 | 53 | 1008.8 |
| 20260505032008 | 55 | 57 | 13.9 | 20.0 | 0.00 | 0.00 | 0.00 | 52 | 1008.6 |
| 20260505031508 | 55 | 54 | 14.8 | 19.1 | 0.00 | 0.00 | 0.00 | 52 | 1008.8 |
| 20260505031009 | 55 | 61 | 13.0 | 20.0 | 0.00 | 0.00 | 0.00 | 53 | 1008.6 |
| 20260505030507 | 55 | 59 | 13.9 | 21.7 | 0.00 | 0.00 | 0.00 | 53 | 1008.6 |
| 20260505030008 | 56 | 61 | 15.6 | 21.7 | 0.00 | 0.00 | 0.00 | 52 | 1008.6 |
| 20260505025508 | 56 | 67 | 15.6 | 20.0 | 0.00 | 0.00 | 0.00 | 52 | 1008.6 |
| 20260505025007 | 56 | 65 | 12.2 | 21.7 | 0.00 | 0.00 | 0.00 | 51 | 1008.8 |
| 20260505023508 | 57 | 63 | 14.8 | 21.7 | 0.00 | 0.00 | 0.00 | 50 | 1008.8 |
| 20260505022509 | 57 | 67 | 14.8 | 22.6 | 0.00 | 0.00 | 0.00 | 49 | 1008.5 |
| 20260505022008 | 58 | 69 | 13.9 | 24.3 | 0.00 | 0.00 | 0.00 | 48 | 1008.5 |
| 20260505021509 | 58 | 54 | 18.2 | 26.9 | 0.00 | 0.00 | 0.00 | 48 | 1008.1 |
| 20260505021008 | 58 | 40 | 17.4 | 26.9 | 0.00 | 0.00 | 0.00 | 47 | 1007.8 |
| 20260505020507 | 58 | 45 | 20.9 | 25.2 | 0.00 | 0.00 | 0.00 | 47 | 1007.9 |
| 20260505020008 | 58 | 53 | 19.1 | 22.6 | 0.00 | 0.00 | 0.00 | 46 | 1007.9 |
| 20260505014507 | 60 | 69 | 11.3 | 15.6 | 0.00 | 0.00 | 0.00 | 47 | 1007.6 |
| 20260505014007 | 60 | 71 | 10.4 | 19.1 | 0.00 | 0.00 | 0.00 | 46 | 1007.6 |
| 20260505013507 | 60 | 66 | 13.9 | 19.1 | 0.00 | 0.00 | 0.00 | 45 | 1007.5 |
| 20260505013007 | 60 | 58 | 12.2 | 19.1 | 0.00 | 0.00 | 0.00 | 45 | 1007.4 |
| 20260505012507 | 60 | 57 | 13.9 | 20.9 | 0.00 | 0.00 | 0.00 | 44 | 1007.4 |
| 20260505012007 | 61 | 57 | 15.6 | 20.9 | 0.00 | 0.00 | 0.00 | 44 | 1007.4 |
| 20260505011508 | 61 | 54 | 13.9 | 20.9 | 0.00 | 0.00 | 0.00 | 44 | 1007.1 |
| 20260505011008 | 61 | 50 | 15.6 | 20.9 | 0.00 | 0.00 | 0.00 | 43 | 1006.9 |
| 20260505010507 | 61 | 56 | 12.2 | 24.3 | 0.00 | 0.00 | 0.00 | 43 | 1006.9 |
| 20260505010007 | 61 | 41 | 18.2 | 24.3 | 0.00 | 0.00 | 0.00 | 42 | 1006.7 |
| 20260505005507 | 62 | 47 | 13.9 | 20.9 | 0.00 | 0.00 | 0.00 | 41 | 1006.3 |
| 20260505005007 | 62 | 43 | 13.9 | 21.7 | 0.00 | 0.00 | 0.00 | 41 | 1006.3 |
| 20260505004508 | 62 | 44 | 15.6 | 24.3 | 0.00 | 0.00 | 0.00 | 40 | 1006.2 |
| 20260505004007 | 62 | 41 | 17.4 | 24.3 | 0.00 | 0.00 | 0.00 | 40 | 1006.1 |
| 20260505003507 | 63 | 32 | 16.5 | 24.3 | 0.00 | 0.00 | 0.00 | 40 | 1006.2 |
| 20260505003007 | 63 | 44 | 14.8 | 24.3 | 0.00 | 0.00 | 0.00 | 40 | 1006.1 |
| 20260505002509 | 63 | 44 | 18.2 | 24.3 | 0.00 | 0.00 | 0.00 | 39 | 1006.1 |
| 20260505001507 | 64 | 38 | 18.2 | 24.3 | 0.00 | 0.00 | 0.00 | 38 | 1006.0 |
| 20260505001007 | 64 | 38 | 15.6 | 24.3 | 0.00 | 0.00 | 0.00 | 37 | 1006.1 |
| 20260505000508 | 64 | 41 | 18.2 | 24.3 | 0.00 | 0.00 | 0.00 | 37 | 1006.1 |
| 20260505000007 | 65 | 39 | 17.4 | 24.3 | 0.00 | 0.00 | 0.00 | 37 | 1006.1 |
| 20260504235008 | 65 | 35 | 13.0 | 24.3 | 0.00 | 0.00 | 0.00 | 36 | 1006.1 |
| 20260504234507 | 65 | 40 | 17.4 | 24.3 | 0.00 | 0.00 | 0.00 | 36 | 1006.0 |
| 20260504234007 | 65 | 42 | 17.4 | 21.7 | 0.00 | 0.00 | 0.00 | 36 | 1006.2 |
| 20260504233507 | 65 | 41 | 14.8 | 21.7 | 0.00 | 0.00 | 0.00 | 36 | 1006.3 |
| 20260504233007 | 65 | 52 | 15.6 | 26.9 | 0.00 | 0.00 | 0.00 | 36 | 1006.2 |
| 20260504232506 | 65 | 42 | 18.2 | 26.9 | 0.00 | 0.00 | 0.00 | 35 | 1005.8 |
| 20260504232006 | 66 | 35 | 18.2 | 26.1 | 0.00 | 0.00 | 0.00 | 35 | 1005.6 |
| 20260504231507 | 66 | 36 | 14.8 | 27.8 | 0.00 | 0.00 | 0.00 | 35 | 1005.5 |
| 20260504231007 | 66 | 40 | 19.1 | 27.8 | 0.00 | 0.00 | 0.00 | 35 | 1005.4 |
| 20260504230508 | 67 | 40 | 17.4 | 25.2 | 0.00 | 0.00 | 0.00 | 34 | 1005.5 |
| 20260504225506 | 68 | 27 | 15.6 | 26.1 | 0.00 | 0.00 | 0.00 | 33 | 1005.2 |
| 20260504225007 | 67 | 36 | 17.4 | 26.1 | 0.00 | 0.00 | 0.00 | 33 | 1005.2 |
| 20260504224507 | 67 | 38 | 18.2 | 25.2 | 0.00 | 0.00 | 0.00 | 33 | 1005.2 |
| 20260504224006 | 68 | 40 | 17.4 | 25.2 | 0.00 | 0.00 | 0.00 | 33 | 1005.1 |
| 20260504223507 | 68 | 43 | 17.4 | 22.6 | 0.00 | 0.00 | 0.00 | 32 | 1004.8 |
| 20260504223007 | 69 | 43 | 15.6 | 22.6 | 0.00 | 0.00 | 0.00 | 32 | 1004.8 |
| 20260504222507 | 69 | 35 | 14.8 | 24.3 | 0.00 | 0.00 | 0.00 | 31 | 1004.7 |
| 20260504221506 | 69 | 24 | 17.4 | 28.7 | 0.00 | 0.00 | 0.00 | 30 | 1004.6 |
| 20260504220506 | 70 | 64 | 17.4 | 27.8 | 0.00 | 0.00 | 0.00 | 31 | 1004.5 |
| 20260504220008 | 70 | 53 | 20.0 | 26.9 | 0.00 | 0.00 | 0.00 | 30 | 1004.4 |
| 20260504215507 | 71 | 60 | 20.0 | 26.9 | 0.00 | 0.00 | 0.00 | 31 | 1004.4 |
| 20260504214506 | 70 | 50 | 22.6 | 31.3 | 0.00 | 0.00 | 0.00 | 30 | 1004.3 |
| 20260504214007 | 71 | 39 | 20.9 | 31.3 | 0.00 | 0.00 | 0.00 | 30 | 1004.2 |
| 20260504213507 | 72 | 19 | 21.7 | 27.8 | 0.00 | 0.00 | 0.00 | 29 | 1004.1 |
| 20260504213007 | 73 | 46 | 19.1 | 26.1 | 0.00 | 0.00 | 0.00 | 27 | 1004.2 |
| 20260504212007 | 74 | 48 | 15.6 | 27.8 | 0.00 | 0.00 | 0.00 | 28 | 1004.3 |
| 20260504211507 | 73 | 37 | 19.1 | 27.8 | 0.00 | 0.00 | 0.00 | 27 | 1004.3 |
| 20260504211006 | 75 | 52 | 15.6 | 25.2 | 0.00 | 0.00 | 0.00 | 29 | 1004.3 |
| 20260504210507 | 74 | 66 | 14.8 | 25.2 | 0.00 | 0.00 | 0.00 | 29 | 1004.4 |
| 20260504205007 | 73 | 17 | 20.9 | 27.8 | 0.00 | 0.00 | 0.00 | 29 | 1004.5 |
| 20260504204506 | 73 | 52 | 16.5 | 26.1 | 0.00 | 0.00 | 0.00 | 30 | 1004.5 |
| 20260504204007 | 75 | 45 | 17.4 | 22.6 | 0.00 | 0.00 | 0.00 | 27 | 1004.5 |
| 20260504203507 | 76 | 60 | 14.8 | 21.7 | 0.00 | 0.00 | 0.00 | 28 | 1004.5 |
| 20260504203007 | 74 | 55 | 13.9 | 22.6 | 0.00 | 0.00 | 0.00 | 29 | 1004.5 |
| 20260504202506 | 74 | 48 | 17.4 | 22.6 | 0.00 | 0.00 | 0.00 | 30 | 1004.4 |
| 20260504202007 | 74 | 57 | 16.5 | 21.7 | 0.00 | 0.00 | 0.00 | 28 | 1004.5 |
| 20260504201007 | 73 | 54 | 18.2 | 24.3 | 0.00 | 0.00 | 0.00 | 29 | 1004.5 |
| 20260504200007 | 74 | 59 | 19.1 | 26.1 | 0.00 | 0.00 | 0.00 | 28 | 1004.4 |
| 20260504195006 | 76 | 62 | 13.0 | 20.9 | 0.00 | 0.00 | 0.00 | 26 | 1004.4 |
| 20260504194006 | 77 | 27 | 4.3 | 12.2 | 0.00 | 0.00 | 0.00 | 18 | 1004.4 |
| 20260504193007 | 78 | 24 | 3.5 | 8.7 | 0.00 | 0.00 | 0.00 | 18 | 1004.5 |
| 20260504192506 | 78 | 274 | 5.2 | 8.7 | 0.00 | 0.00 | 0.00 | 18 | 1004.5 |
| 20260504192006 | 78 | 302 | 1.7 | 8.7 | 0.00 | 0.00 | 0.00 | 19 | 1004.6 |
| 20260504191507 | 77 | 185 | 2.6 | 10.4 | 0.00 | 0.00 | 0.00 | 18 | 1004.6 |
| 20260504191006 | 77 | 90 | 5.2 | 10.4 | 0.00 | 0.00 | 0.00 | 18 | 1004.7 |
| 20260504190006 | 78 | 74 | 2.6 | 6.1 | 0.00 | 0.00 | 0.00 | 17 | 1004.7 |
| 20260504185506 | 78 | 146 | 2.6 | 6.1 | 0.00 | 0.00 | 0.00 | 18 | 1004.7 |
| 20260504185006 | 77 | 113 | 0.9 | 6.1 | 0.00 | 0.00 | 0.00 | 18 | 1004.7 |
| 20260504184506 | 77 | 8 | 0.9 | 8.7 | 0.00 | 0.00 | 0.00 | 20 | 1004.8 |
| 20260504184006 | 77 | 89 | 2.6 | 8.7 | 0.00 | 0.00 | 0.00 | 18 | 1005.0 |
| 20260504183507 | 76 | 8 | 2.6 | 8.7 | 0.00 | 0.00 | 0.00 | 21 | 1005.0 |
| 20260504182506 | 76 | 5 | 5.2 | 10.4 | 0.00 | 0.00 | 0.00 | 19 | 1005.2 |
| 20260504182006 | 76 | 13 | 3.5 | 10.4 | 0.00 | 0.00 | 0.00 | 20 | 1005.2 |
| 20260504181506 | 76 | 332 | 3.5 | 7.8 | 0.00 | 0.00 | 0.00 | 22 | 1005.3 |
| 20260504181007 | 76 | 345 | 4.3 | 7.0 | 0.00 | 0.00 | 0.00 | 18 | 1005.4 |
| 20260504180505 | 77 | 349 | 4.3 | 7.0 | 0.00 | 0.00 | 0.00 | 19 | 1005.4 |
| 20260504180006 | 77 | 56 | 1.7 | 7.0 | 0.00 | 0.00 | 0.00 | 21 | 1005.5 |
| 20260504175506 | 77 | 155 | 5.2 | 7.8 | 0.00 | 0.00 | 0.00 | 20 | 1005.5 |
| 20260504175006 | 77 | 161 | 2.6 | 7.8 | 0.00 | 0.00 | 0.00 | 20 | 1005.7 |
| 20260504174506 | 77 | 162 | 4.3 | 8.7 | 0.00 | 0.00 | 0.00 | 21 | 1005.7 |
| 20260504174007 | 76 | 154 | 4.3 | 8.7 | 0.00 | 0.00 | 0.00 | 21 | 1005.8 |
| 20260504173506 | 76 | 186 | 5.2 | 8.7 | 0.00 | 0.00 | 0.00 | 24 | 1005.8 |
| 20260504173006 | 75 | 161 | 5.2 | 8.7 | 0.00 | 0.00 | 0.00 | 22 | 1005.8 |
| 20260504172006 | 75 | 144 | 4.3 | 7.8 | 0.00 | 0.00 | 0.00 | 21 | 1006.0 |
| 20260504171506 | 74 | 56 | 1.7 | 7.8 | 0.00 | 0.00 | 0.00 | 22 | 1006.0 |
| 20260504171005 | 74 | 53 | 5.2 | 7.8 | 0.00 | 0.00 | 0.00 | 23 | 1005.9 |
| 20260504170505 | 74 | 95 | 4.3 | 7.8 | 0.00 | 0.00 | 0.00 | 23 | 1005.9 |
| 20260504150506 | 63 | 339 | 2.6 | 6.1 | 0.00 | 0.00 | 0.00 | 46 | 1006.5 |
| 20260504141005 | 58 | 351 | 4.3 | 7.0 | 0.00 | 0.00 | 0.00 | 52 | 1006.7 |
| 20260504140506 | 58 | 342 | 5.2 | 7.0 | 0.00 | 0.00 | 0.00 | 52 | 1006.7 |
| 20260504130505 | 47 | 319 | 4.3 | 7.0 | 0.00 | 0.00 | 0.00 | 72 | 1006.6 |
| 20260504110504 | 38 | 291 | 6.1 | 7.0 | 0.00 | 0.00 | 0.00 | 84 | 1006.0 |
| 20260504100504 | 39 | 341 | 5.2 | 6.1 | 0.00 | 0.00 | 0.00 | 84 | 1006.3 |
| 20260504082004 | 42 | 315 | 7.0 | 7.8 | 0.00 | 0.00 | 0.00 | 77 | 1006.9 |
| 20260504081504 | 41 | 322 | 7.0 | 8.7 | 0.00 | 0.00 | 0.00 | 78 | 1007.0 |
| 20260504081004 | 42 | 314 | 7.8 | 8.7 | 0.00 | 0.00 | 0.00 | 78 | 1007.1 |
| 20260504080504 | 42 | 312 | 7.0 | 7.8 | 0.00 | 0.00 | 0.00 | 77 | 1007.1 |
| 20260504050508 | 48 | 349 | 6.1 | 8.7 | 0.00 | 0.00 | 0.00 | 70 | 1008.4 |
| 20260504045508 | 50 | 347 | 7.8 | 10.4 | 0.00 | 0.00 | 0.00 | 65 | 1008.6 |
| 20260504045008 | 50 | 8 | 7.8 | 10.4 | 0.00 | 0.00 | 0.00 | 66 | 1008.6 |
| 20260504044509 | 51 | 9 | 7.0 | 8.7 | 0.00 | 0.00 | 0.00 | 63 | 1008.6 |
| 20260504044008 | 52 | 192 | 7.0 | 7.0 | 0.00 | 0.00 | 0.00 | 59 | 1008.4 |
| 20260504043508 | 52 | 191 | 6.1 | 7.0 | 0.00 | 0.00 | 0.00 | 60 | 1008.5 |
| 20260504043009 | 51 | 194 | 5.2 | 6.1 | 0.00 | 0.00 | 0.00 | 62 | 1008.5 |
| 20260504042510 | 51 | 212 | 2.6 | 4.3 | 0.00 | 0.00 | 0.00 | 62 | 1008.6 |